Dover AFB, DE

11:17 AM EST on January 18, 2018 (GMT -0500)
Dover Air Force Base

Weather History for KDOV - February, 2014

Change the Weather History Date:

Saturday, February 22, 2014

  Actual Average Record
Temperature  
Mean Temperature 46 °F -  
Max Temperature 59 °F 52 °F 71 °F (1990)
Min Temperature 34 °F 30 °F 5 °F (1968)
Degree Days  
Heating Degree Days 18    
Moisture  
Dew Point 35 °F    
Average Humidity 74    
Maximum Humidity 100    
Minimum Humidity 34    
Precipitation  
Precipitation 0.00 in - - ()
Sea Level Pressure  
Sea Level Pressure 30.03 in    
Wind  
Wind Speed 7 mph (SW)    
Max Wind Speed 21 mph    
Max Gust Speed -    
Visibility 8 miles    
Events      
Averages and records for this station are not official NWS values.
T = Trace of Precipitation, MM = Missing Value Source: NWS Daily Summary

Daily Weather History Graph

Daily Weather History Graph

Search for Another Location

Airport or City:

Trip Planner

Search our weather history database for the weather conditions in past years. The results will help you decide how hot, cold, wet, or windy it might be!

Date:

Astronomy

Feb. 22, 2014 Rise Set
Actual Time 6:44 AM EST 5:46 PM EST
Civil Twilight 6:17 AM EST 6:13 PM EST
Nautical Twilight 5:46 AM EST 6:45 PM EST
Astronomical Twilight 5:15 AM EST 7:16 PM EST
Moon 12:36 AM EST (2/22) 10:57 AM EST (2/22)
Length of Visible Light 11h 56m
Length of Day
11h 02m
Waning Gibbous, 50% of the Moon is Illuminated
Feb 22
Waning Gibbous
Feb 22
Last Quarter
Mar 1
New
Mar 8
First Quarter
Mar 16
Full

Hourly Weather History & Observations

Time (EST) Temp. Windchill Dew Point Humidity Pressure Visibility Wind Dir Wind Speed Gust Speed Precip Events Conditions
12:03 AM 37.4 °F 33.8 °F 37.4 °F 100% 29.95 in 1.2 mi WSW 4.6 mph - N/A   Clear
12:08 AM 37.4 °F 33.8 °F 37.4 °F 100% 29.95 in 1.0 mi WSW 4.6 mph - N/A   Clear
12:13 AM 37.4 °F 34.9 °F 37.4 °F 100% 29.95 in 1.8 mi WSW 3.5 mph - N/A   Clear
12:18 AM 37.4 °F 33.8 °F 37.4 °F 100% 29.95 in 2.0 mi WSW 4.6 mph - N/A   Clear
12:23 AM 37.4 °F 33.8 °F 37.4 °F 100% 29.96 in 1.8 mi WSW 4.6 mph - N/A   Clear
12:28 AM 35.6 °F 32.8 °F 35.6 °F 100% 29.96 in 1.0 mi WSW 3.5 mph - N/A   Clear
12:33 AM 35.6 °F 30.7 °F 35.6 °F 100% 29.95 in 1.2 mi WSW 5.8 mph - N/A   Clear
12:38 AM 39.2 °F 35.0 °F 39.2 °F 100% 29.96 in 3.0 mi WSW 5.8 mph - N/A   Clear
12:58 AM 37.8 °F 33.3 °F 37.8 °F 100% 29.98 in 7.0 mi West 5.8 mph - N/A   Clear
1:58 AM 42.1 °F 37.1 °F 41.9 °F 99% 30.00 in 10.0 mi West 8.1 mph - N/A   Clear
2:58 AM 41.5 °F 38.6 °F 39.6 °F 93% 30.02 in 10.0 mi WSW 4.6 mph - N/A   Clear
3:58 AM 41.0 °F 39.0 °F 37.4 °F 87% 30.05 in 10.0 mi WSW 3.5 mph - N/A   Clear
4:58 AM 37.2 °F 33.6 °F 37.0 °F 99% 30.07 in 10.0 mi SSW 4.6 mph - N/A   Partly Cloudy
5:58 AM 37.6 °F 33.1 °F 37.2 °F 99% 30.08 in 10.0 mi SW 5.8 mph - N/A   Clear
6:58 AM 34.7 °F 28.8 °F 34.5 °F 99% 30.09 in 10.0 mi SW 6.9 mph - N/A   Scattered Clouds
7:58 AM 39.9 °F 35.8 °F 35.4 °F 84% 30.11 in 10.0 mi WSW 5.8 mph - N/A   Clear
8:58 AM 45.9 °F 42.9 °F 36.5 °F 70% 30.12 in 10.0 mi SSW 5.8 mph - N/A   Clear
9:58 AM 52.0 °F - 32.4 °F 47% 30.12 in 10.0 mi SW 9.2 mph - N/A   Clear
10:58 AM 55.2 °F - 29.7 °F 38% 30.10 in 10.0 mi SSW 8.1 mph - N/A   Clear
11:58 AM 57.7 °F - 31.6 °F 37% 30.09 in 10.0 mi South 13.8 mph - N/A   Clear
12:58 PM 59.4 °F - 30.7 °F 34% 30.07 in 10.0 mi SSW 12.7 mph - N/A   Clear
1:58 PM 59.4 °F - 33.8 °F 38% 30.05 in 10.0 mi South 20.7 mph - N/A   Clear
2:58 PM 59.5 °F - 32.7 °F 36% 30.04 in 10.0 mi South 16.1 mph - N/A   Clear
3:58 PM 59.0 °F - 30.9 °F 35% 30.04 in 10.0 mi SSW 15.0 mph - N/A   Clear
4:58 PM 56.5 °F - 31.5 °F 39% 30.04 in 10.0 mi South 13.8 mph - N/A   Clear
5:58 PM 50.5 °F - 30.2 °F 46% 30.04 in 10.0 mi South 6.9 mph - N/A   Clear
6:58 PM 46.8 °F - 30.7 °F 54% 30.05 in 10.0 mi South 8.1 mph - N/A   Clear
7:58 PM 47.8 °F - 33.6 °F 58% 30.06 in 10.0 mi South 12.7 mph - N/A   Clear
8:58 PM 46.6 °F - 33.8 °F 61% 30.07 in 10.0 mi South 11.5 mph - N/A   Clear
9:58 PM 45.1 °F 39.9 °F 34.7 °F 67% 30.07 in 10.0 mi South 10.4 mph - N/A   Clear
10:58 PM 46.8 °F - 37.0 °F 69% 30.06 in 10.0 mi South 12.7 mph - N/A   Clear
11:58 PM 46.0 °F 40.2 °F 39.4 °F 78% 30.04 in 10.0 mi South 12.7 mph - N/A   Clear